Regional Weather Roundup
Issued by NWS Raleigh/Durham, NC

Current Version | Previous Version | Text Only | Print | Product List | Glossary On
Versions: 1 2 3 4 5 6 7 8 9 10 11 12 13 14 15 16 17 18 19 20 21 22 23 24 25 26 27
000 ASUS42 KRAH 300210 RWRRAH NORTH CAROLINA WEATHER ROUNDUP NATIONAL WEATHER SERVICE RALEIGH NC 1000 PM EDT SAT APR 29 2017 NOTE: "FAIR" INDICATES FEW OR NO CLOUDS BELOW 12,000 FEET WITH NO SIGNIFICANT WEATHER AND/OR OBSTRUCTIONS TO VISIBILITY. NCZ001-053-055-056-065-067-300300- WESTERN NORTH CAROLINA CITY SKY/WX TMP DP RH WIND PRES REMARKS ASHEVILLE CLOUDY 71 66 84 SE9 30.20R JEFFERSON MOCLDY 66 65 96 SE3 30.22 FOG MORGANTON CLOUDY 72 68 89 CALM 30.20S HICKORY CLOUDY 73 70 90 SW3 30.15S RUTHERFORDTON NOT AVBL MOUNT AIRY CLEAR 77 72 84 CALM 30.18R BOONE NOT AVBL $$ NCZ021-022-025-041-071-084-088-300300- CENTRAL NORTH CAROLINA CITY SKY/WX TMP DP RH WIND PRES REMARKS CHARLOTTE CLOUDY 76 67 73 S9 30.15 GREENSBORO MOCLDY 76 70 82 S8 30.15R WINSTON-SALEM CLEAR 77 67 71 S3 30.16S RALEIGH-DURHAM MOCLDY 78 67 68 S3 30.16R FORT BRAGG PTCLDY 78 70 76 S10 30.16R FAYETTEVILLE PTCLDY 78 71 79 S10 30.17R BURLINGTON CLEAR 74 69 85 CALM 30.14R LAURINBURG CLEAR 77 72 84 S8 30.17R $$ NCZ011-015-027-028-043-044-047-080-103-300300- NORTHEASTERN NORTH CAROLINA CITY SKY/WX TMP DP RH WIND PRES REMARKS ROCKY MT-WILSO CLEAR 77 71 82 S7 30.17R GREENVILLE CLEAR 77 72 83 S12 30.19R WASHINGTON CLEAR 74 69 84 S7 30.18R ELIZABETH CITY CLEAR 77 73 87 S14 30.15R MANTEO CLEAR 75 70 86 SW16 30.18R CAPE HATTERAS CLEAR 74 71 91 SW12G21 30.20S FOG $$ NCZ078-087-090-091-093-098-101-300300- SOUTHEASTERN NORTH CAROLINA CITY SKY/WX TMP DP RH WIND PRES REMARKS LUMBERTON CLEAR 75 71 87 VRB5 30.18R GOLDSBORO PTCLDY 77 74 89 S9 30.17R KINSTON PTCLDY 75 70 83 S8 30.20R KENANSVILLE CLOUDY 73 70 88 S3 30.20R NEW BERN CLEAR 73 71 93 S9 30.21R CHERRY POINT CLEAR 74 69 85 S9 30.21S BEAUFORT CLEAR 73 73 100 SW13 30.21S JACKSONVILLE CLOUDY 73 72 96 S7 30.20R WILMINGTON CLEAR 73 70 90 S7 30.21R $$

USA.gov is the U.S. government's official web portal to all federal, state and local government web resources and services.